Location: Luxembourg
(49.6117°N, 6.1300°E)
Time: 16:30:16
(UTC+01:00)

N. Korean satellite - Pass Details

Date: 28 January 2019
Orbit: 456 x 510 km, 97.2° (Epoch: 21 February)

Event Time Altitude Azimuth Distance (km) Brightness Sun altitude
Rises 17:53:52 0° 167° (SSE) 2,598 10.4 -5.3°
Reaches altitude 10° 17:55:56 10° 168° (SSE) 1,722 9.5 -5.6°
Maximum altitude 17:59:40 84° 258° (WSW) 521 6.8 -6.2°
Drops below altitude 10° 18:03:26 10° 346° (NNW) 1,743 9.3 -6.7°
Sets 18:05:32 0° 347° (NNW) 2,633 10.2 -7.0°
